Location: Colonia Mina de C?rbuni
(46.1667°N, 22.7167°E)
Time: 00:45:59
(UTC+00:00)

USA 81 - Pass Details

Date: 04 February 2023
Orbit: 784 x 788 km, 85.0° (Epoch: 23 March)

Event Time Altitude Azimuth Distance (km) Brightness Sun altitude
Rises 17:51:52 0° 182° (S) 3,268 7.3 -23.4°
Reaches altitude 10° 17:54:13 10° 182° (S) 2,344 6.5 -23.8°
Maximum altitude 17:59:29 88° 95° (E) 795 3.9 -24.7°
Drops below altitude 10° 18:04:48 10° 6° (N) 2,359 6.5 -25.6°
Sets 18:07:10 0° 6° (N) 3,292 7.3 -26.1°
